When you browse on this site, cookies collect data to enhance your experience and personalize the content and advertising you see.
Visit our Privacy Policy to learn more. By continuing to use the site, you agree to this use of cookies and data.
  • En España
  • Lista de países
  • Para 7 días
  • Temperatura del agua
  • El tiempo en el mapa
  • Informadores
  • user-avatar
    Iniciar sesión

    Tiempo cada hora Klagenfurt

    Hoy, 4 Junio, Jueves

    Tiempo Temperatura Precipitaciones Viento Presión Humedad
    00:00 +11°C° 0.2 mm 1 mps 682 mmHg 96%
    01:00 +11°C° 0.2 mm 1 mps 681 mmHg 97%
    02:00 +11°C° 0 mm 1 mps 681 mmHg 97%
    03:00 +11°C° 0 mm 1 mps 681 mmHg 98%
    04:00 +11°C° 0 mm 1 mps 680 mmHg 98%
    05:00 +12°C° 0 mm 1 mps 680 mmHg 96%
    06:00 +13°C° 0 mm 1 mps 680 mmHg 94%
    07:00 +14°C° 0 mm 1 mps 680 mmHg 92%
    08:00 +14°C° 0.2 mm 2 mps 680 mmHg 88%
    09:00 +14°C° 0.2 mm 3 mps 680 mmHg 84%
    10:00 +16°C° 0.2 mm 3 mps 680 mmHg 80%
    11:00 +16°C° 0.6 mm 3 mps 680 mmHg 80%
    12:00 +16°C° 0.6 mm 3 mps 680 mmHg 80%
    13:00 +15°C° 0.6 mm 4 mps 679 mmHg 80%
    14:00 +14°C° 1.3 mm 3 mps 679 mmHg 85%
    15:00 +13°C° 1.3 mm 3 mps 678 mmHg 89%
    16:00 +13°C° 1.3 mm 2 mps 678 mmHg 93%
    17:00 +13°C° 1.8 mm 2 mps 678 mmHg 95%
    18:00 +13°C° 1.8 mm 2 mps 678 mmHg 96%
    19:00 +12°C° 1.8 mm 2 mps 677 mmHg 98%
    20:00 +12°C° 1.8 mm 1 mps 677 mmHg 98%
    21:00 +12°C° 1.8 mm 1 mps 677 mmHg 98%
    22:00 +11°C° 1.8 mm 0 mps 677 mmHg 98%
    23:00 +12°C° 3.6 mm 1 mps 676 mmHg 99%

    Mañana, 5 Junio, Viernes

    Tiempo Temperatura Precipitaciones Viento Presión Humedad
    00:00 +12°C° 3.6 mm 1 mps 676 mmHg 99%
    01:00 +12°C° 3.6 mm 1 mps 676 mmHg 99%
    02:00 +12°C° 3.3 mm 1 mps 676 mmHg 99%
    03:00 +12°C° 3.3 mm 2 mps 676 mmHg 99%
    04:00 +13°C° 3.3 mm 2 mps 676 mmHg 98%
    05:00 +13°C° 2.8 mm 1 mps 676 mmHg 98%
    06:00 +12°C° 2.8 mm 1 mps 676 mmHg 98%
    07:00 +12°C° 2.8 mm 1 mps 676 mmHg 98%
    08:00 +12°C° 3 mm 1 mps 677 mmHg 97%
    09:00 +12°C° 3 mm 1 mps 677 mmHg 97%
    10:00 +11°C° 3 mm 1 mps 677 mmHg 97%
    11:00 +11°C° 1.7 mm 1 mps 677 mmHg 97%
    12:00 +11°C° 1.7 mm 1 mps 678 mmHg 97%
    13:00 +11°C° 1.7 mm 1 mps 678 mmHg 97%
    14:00 +11°C° 0.4 mm 1 mps 678 mmHg 96%
    15:00 +11°C° 0.4 mm 1 mps 679 mmHg 95%
    16:00 +10°C° 0.4 mm 0 mps 679 mmHg 94%
    17:00 +10°C° 0.1 mm 0 mps 679 mmHg 94%
    18:00 +10°C° 0.1 mm 0 mps 680 mmHg 94%
    19:00 +10°C° 0.1 mm 0 mps 680 mmHg 94%
    20:00 +10°C° 0 mm 0 mps 680 mmHg 94%
    21:00 +9°C° 0 mm 0 mps 681 mmHg 94%
    22:00 +9°C° 0 mm 0 mps 682 mmHg 94%
    23:00 +8°C° 0 mm 0 mps 682 mmHg 94%

    Pasado mañana, 6 Junio, Sábado

    Tiempo Temperatura Precipitaciones Viento Presión Humedad
    00:00 +8°C° 0 mm 0 mps 682 mmHg 94%
    01:00 +7°C° 0 mm 0 mps 682 mmHg 94%
    02:00 +8°C° 0 mm 0 mps 682 mmHg 94%
    03:00 +8°C° 0 mm 0 mps 683 mmHg 94%
    04:00 +8°C° 0 mm 0 mps 683 mmHg 95%
    05:00 +9°C° 0 mm 0 mps 683 mmHg 94%
    06:00 +10°C° 0 mm 0 mps 684 mmHg 93%
    07:00 +11°C° 0 mm 0 mps 684 mmHg 92%
    08:00 +12°C° 0 mm 0 mps 684 mmHg 89%
    09:00 +13°C° 0 mm 0 mps 684 mmHg 86%
    10:00 +15°C° 0 mm 1 mps 685 mmHg 83%
    11:00 +16°C° 0.3 mm 1 mps 685 mmHg 79%
    12:00 +19°C° 0.3 mm 1 mps 685 mmHg 76%
    13:00 +20°C° 0.3 mm 1 mps 685 mmHg 73%
    14:00 +19°C° 0.6 mm 1 mps 685 mmHg 77%
    15:00 +18°C° 0.6 mm 2 mps 684 mmHg 80%
    16:00 +18°C° 0.6 mm 2 mps 684 mmHg 84%
    17:00 +17°C° 0.3 mm 2 mps 684 mmHg 87%
    18:00 +16°C° 0.3 mm 1 mps 684 mmHg 90%
    19:00 +15°C° 0.3 mm 1 mps 684 mmHg 93%
    20:00 +14°C° 0 mm 1 mps 684 mmHg 94%
    21:00 +12°C° 0 mm 1 mps 684 mmHg 95%
    22:00 +11°C° 0 mm 1 mps 684 mmHg 96%
    23:00 +11°C° 0 mm 1 mps 684 mmHg 96%

    7 Junio, Domingo

    Tiempo Temperatura Precipitaciones Viento Presión Humedad
    00:00 +11°C° 0 mm 1 mps 684 mmHg 96%
    01:00 +11°C° 0 mm 1 mps 684 mmHg 96%
    02:00 +11°C° 0 mm 1 mps 684 mmHg 96%
    03:00 +11°C° 0 mm 1 mps 684 mmHg 96%
    04:00 +11°C° 0 mm 1 mps 684 mmHg 96%
    05:00 +11°C° 0 mm 0 mps 684 mmHg 94%
    06:00 +12°C° 0 mm 0 mps 685 mmHg 92%
    07:00 +14°C° 0 mm 0 mps 685 mmHg 89%
    08:00 +16°C° 0.2 mm 1 mps 685 mmHg 84%
    09:00 +18°C° 0.2 mm 1 mps 686 mmHg 79%
    10:00 +20°C° 0.2 mm 1 mps 686 mmHg 74%
    11:00 +18°C° 0.7 mm 2 mps 686 mmHg 77%
    12:00 +18°C° 0.7 mm 2 mps 685 mmHg 81%
    13:00 +18°C° 0.7 mm 2 mps 685 mmHg 84%
    14:00 +18°C° 0.6 mm 2 mps 685 mmHg 84%
    15:00 +18°C° 0.6 mm 2 mps 685 mmHg 84%
    16:00 +17°C° 0.6 mm 2 mps 685 mmHg 85%
    17:00 +16°C° 1 mm 2 mps 685 mmHg 88%
    18:00 +15°C° 1 mm 1 mps 685 mmHg 91%
    19:00 +15°C° 1 mm 1 mps 685 mmHg 95%
    20:00 +14°C° 2 mm 1 mps 685 mmHg 96%
    21:00 +14°C° 2 mm 1 mps 685 mmHg 97%
    22:00 +14°C° 2 mm 1 mps 685 mmHg 98%
    23:00 +13°C° 1.2 mm 1 mps 685 mmHg 98%

    8 Junio, Lunes

    Tiempo Temperatura Precipitaciones Viento Presión Humedad
    00:00 +13°C° 1.2 mm 1 mps 685 mmHg 98%
    01:00 +13°C° 1.2 mm 1 mps 685 mmHg 98%
    02:00 +12°C° 2 mm 1 mps 685 mmHg 98%
    03:00 +12°C° 2 mm 1 mps 685 mmHg 98%
    04:00 +11°C° 2 mm 1 mps 685 mmHg 98%
    05:00 +11°C° 1.7 mm 1 mps 685 mmHg 98%
    06:00 +11°C° 1.7 mm 1 mps 685 mmHg 98%
    07:00 +10°C° 1.7 mm 1 mps 686 mmHg 98%
    08:00 +11°C° 0.8 mm 1 mps 686 mmHg 97%
    09:00 +11°C° 0.8 mm 1 mps 686 mmHg 97%
    10:00 +11°C° 0.8 mm 1 mps 687 mmHg 97%
    11:00 +11°C° 0.8 mm 1 mps 687 mmHg 96%
    12:00 +11°C° 0.8 mm 1 mps 687 mmHg 96%
    13:00 +12°C° 0.8 mm 1 mps 687 mmHg 95%
    14:00 +12°C° 0.2 mm 1 mps 687 mmHg 94%
    15:00 +12°C° 0.2 mm 1 mps 687 mmHg 93%
    16:00 +13°C° 0.2 mm 1 mps 687 mmHg 92%
    17:00 +13°C° 0 mm 1 mps 687 mmHg 93%
    18:00 +11°C° 0 mm 0 mps 687 mmHg 94%
    19:00 +11°C° 0 mm 0 mps 687 mmHg 96%
    20:00 +11°C° 0 mm 0 mps 687 mmHg 96%
    21:00 +11°C° 0 mm 0 mps 687 mmHg 97%
    22:00 +10°C° 0 mm 0 mps 687 mmHg 97%
    23:00 +10°C° 0 mm 0 mps 687 mmHg 97%

    9 Junio, Martes

    Tiempo Temperatura Precipitaciones Viento Presión Humedad
    00:00 +10°C° 0 mm 0 mps 687 mmHg 97%
    01:00 +10°C° 0 mm 0 mps 687 mmHg 97%
    02:00 +10°C° 0.1 mm 0 mps 687 mmHg 97%
    03:00 +10°C° 0.1 mm 0 mps 687 mmHg 97%
    04:00 +10°C° 0.1 mm 0 mps 687 mmHg 97%
    05:00 +11°C° 0.1 mm 0 mps 687 mmHg 97%
    06:00 +11°C° 0.1 mm 0 mps 688 mmHg 96%
    07:00 +12°C° 0.1 mm 1 mps 688 mmHg 95%
    08:00 +12°C° 0.4 mm 1 mps 688 mmHg 95%
    09:00 +13°C° 0.4 mm 1 mps 688 mmHg 95%
    10:00 +13°C° 0.4 mm 1 mps 688 mmHg 95%
    11:00 +13°C° 0.3 mm 1 mps 688 mmHg 95%
    12:00 +13°C° 0.3 mm 1 mps 688 mmHg 94%
    13:00 +14°C° 0.3 mm 1 mps 688 mmHg 94%
    14:00 +14°C° 0.4 mm 1 mps 688 mmHg 94%
    15:00 +14°C° 0.4 mm 1 mps 688 mmHg 94%
    16:00 +13°C° 0.4 mm 0 mps 688 mmHg 94%
    17:00 +13°C° 0.2 mm 0 mps 688 mmHg 94%
    18:00 +12°C° 0.2 mm 0 mps 688 mmHg 95%
    19:00 +12°C° 0.2 mm 0 mps 688 mmHg 96%
    20:00 +12°C° 0.2 mm 0 mps 688 mmHg 96%
    21:00 +11°C° 0.2 mm 0 mps 688 mmHg 97%
    22:00 +10°C° 0.2 mm 0 mps 688 mmHg 97%
    23:00 +10°C° 0.2 mm 0 mps 688 mmHg 97%
    Mostrar más